Regional Weather Roundup
Issued by NWS

Home | Current Version | Previous Version | Graphics & Text | Print | Product List | Glossary On
Versions: 1 2 3 4 5 6 7 8 9 10 11 12 13 14 15 16 17 18 19 20 21 22 23 24 25 26 27 28 29 30 31 32 33 34 35 36 37 38 39 40 41 42 43 44 45 46 47 48 49 50
000
ASUS44 KMEG 210110
RWRTN
TENNESSEE HOURLY STATE WEATHER ROUNDUP
NATIONAL WEATHER SERVICE MEMPHIS TN
700 PM CST FRI JAN 20 2017

TNZ002-004-019-021-049-052-054-088>092-210200-
WEST TENNESSEE

CITY           SKY/WX    TMP DP  RH WIND       PRES   REMARKS
MEMPHIS INTL   MOCLDY    63  55  75 S10       29.68F
NWS MEMPHIS      N/A     63 N/A N/A MISG        N/A
JACKSON        CLOUDY    60  55  83 S5        29.70S
DYERSBURG      CLOUDY    61  52  72 S7        29.67S
UNION CITY     CLEAR     57  57 100 CALM      29.67S
PARIS          CLEAR     55  52  88 CALM      29.71R
HUNTINGDON     CLEAR     57  54  88 S5        29.70S
$$

TNZ008-025-027-028-033-062-065-066-210200-
NORTH MIDDLE TENNESSEE

CITY           SKY/WX    TMP DP  RH WIND       PRES   REMARKS
NASHVILLE      MOCLDY    62  51  67 S8G21     29.75R
PORTLAND       CLEAR     59  52  77 S7        29.74S
CLARKSVILLE    MOCLDY    57  50  77 S3        29.73R
SMYRNA         PTCLDY    60  53  77 S5        29.77R
GALLATIN       CLEAR     61  54  77 SE5       29.78R
CROSSVILLE     CLEAR     56  48  74 S5        29.83R
$$

TNZ061-075-076-078-094-096-097-210200-
SOUTH MIDDLE TENNESSEE

CITY           SKY/WX    TMP DP  RH WIND       PRES   REMARKS
TULLAHOMA      CLEAR     59  50  72 S5        29.80R
WINCHESTER     CLEAR     55  50  82 CALM      29.81R
MCMINNVILLE    CLEAR     57  52  82 CALM      29.79S
COLUMBIA       CLEAR     63  61  94 S6        29.74R
SHELBYVILLE    CLEAR     63  54  72 S7        29.78R
$$

TNZ017-018-042-046-047-210200-
NORTHEAST TENNESSEE

CITY           SKY/WX    TMP DP  RH WIND       PRES   REMARKS
TRI CITIES     PTCLDY    50  47  89 CALM      29.85R
ELIZABETHTON   CLEAR     50  48  93 CALM      29.86R
$$

TNZ012-013-036-069-073-074-210200-
CENTRAL EAST TENNESSEE

CITY           SKY/WX    TMP DP  RH WIND       PRES   REMARKS
KNOXVILLE      MOCLDY    61  49  64 SW3       29.81R
OAK RIDGE      MOCLDY    57  50  77 CALM      29.82R
GATLINBURG     CLEAR     54  46  76 CALM      29.82R
MORRISTOWN     PTCLDY    55  52  88 CALM      29.83R
JACKSBORO      PTCLDY    54  50  87 CALM      29.85R
$$

TNZ083-085-099-210200-
SOUTHEAST TENNESSEE

CITY           SKY/WX    TMP DP  RH WIND       PRES   REMARKS
CHATTANOOGA    MOCLDY    62  52  69 CALM      29.82R
$$

SKY/WX REPORTED AS FAIR MEANS FEW OR NO CLOUDS BELOW
12 THOUSAND FEET.




USA.gov is the U.S. government's official web portal to all federal, state and local government web resources and services.